Location: St. Louis
(38.6270°N, 90.1994°W)
Time: 05:33:23
(UTC-06:00)

Vanguard 2 - Pass Details

Date: 29 November 2021
Orbit: 553 x 2936 km, 32.9° (Epoch: 19 January)

Event Time Altitude Azimuth Distance (km) Brightness Sun altitude
Rises 16:49:24 0° 264° (W) 3,747 12.7 -2.4°
Reaches altitude 10° 16:51:37 10° 261° (W) 3,025 12.2 -2.8°
Maximum altitude 16:59:11 62° 182° (S) 1,770 9.5 -4.2°
Drops below altitude 10° 17:12:00 10° 107° (ESE) 4,936 11.2 -6.5°
Sets 17:16:41 0° 105° (ESE) 6,254 11.7 -7.3°
